Regional Weather Roundup
Issued by NWS

Home | Current Version | Previous Version | Graphics & Text | Print | Product List | Glossary Off
Versions: 1 2 3 4 5 6 7 8 9 10 11 12 13 14 15 16 17 18 19 20 21 22 23 24 25 26 27 28 29 30 31 32 33 34 35 36 37 38 39 40 41 42 43 44 45 46 47 48 49 50

000
ASUS43 KDTX 300510
RWRMI
MICHIGAN HOURLY REGIONAL WEATHER ROUNDUP
NATIONAL WEATHER SERVICE DETROIT/PONTIAC MI
100 AM EDT SAT AUG 30 2014

NOTE: "FAIR" INDICATES FEW OR NO CLOUDS BELOW 12,000 FEET WITH NO
SIGNIFICANT WEATHER AND/OR OBSTRUCTION TO VISIBILITY.

MIZ047>049-052>055-059>063-066>070-074>076-081>083-300600-
SOUTHEAST LOWER MICHIGAN

CITY           SKY/WX    TMP DP  RH WIND       PRES   REMARKS
ADRIAN         PTCLDY    68  63  84 SE5       30.03S
ALMA           CLOUDY    69  63  80 SE5       29.97F
ANN ARBOR      PTCLDY    69  62  78 CALM      30.02F
BAD AXE        CLOUDY    66  57  73 S10       30.01F
DETROIT CITY   CLOUDY    72  62  71 S7        30.04S
DETROIT        MOCLDY    70  64  81 E3        30.03F
FLINT          MOCLDY    70  58  65 S9        30.01F
GROSSE ILE     MOCLDY    73  66  78 S8        30.02S
HILLSDALE      MOCLDY    71  66  83 SE3       30.02F
HOWELL         PTCLDY    67  62  83 SE8       30.02S

CITY           SKY/WX    TMP DP  RH WIND       PRES   REMARKS
JACKSON        MOCLDY    69  63  81 SE8       30.00F
LAMBERTVILLE   PTCLDY    70  61  73 SE5       30.03S
LANSING        MOCLDY    70  62  76 SE13      29.99F
LAPEER         NOT AVBL
MASON          MOCLDY    67  62  86 SE8       30.00F
MONROE         PTCLDY    72  63  73 S6        30.01F
MT. CLEMENS    CLOUDY    70  64  83 SE6       30.03F
PONTIAC        CLOUDY    68  58  70 SE5       30.03F
PORT HOPE        N/A     68  55  63 S7        29.98F
PORT HURON     CLOUDY    66  61  82 SE3       30.04S
TRI CITIES     CLOUDY    71  58  63 S10       29.98F
YPSILANTI      MOCLDY    73  64  73 SE6       30.03F
$$
MIZ043>046-050>051-056>058-064>065-071>073-077>080-300600-
SOUTHWEST LOWER MICHIGAN

CITY           SKY/WX    TMP DP  RH WIND       PRES   REMARKS
BATTLE CREEK   CLOUDY    73  66  78 S9        29.99S
BENTON HARBOR  CLOUDY    69  65  86 SE8       29.92F
BIG RAPIDS     MOCLDY    70  68  95 SE8       29.93F
COLDWATER      CLOUDY    74  66  74 S6        29.99S
HOLLAND        CLOUDY    75  68  78 S14       29.92F
GRAND RAPIDS   PTCLDY    75  70  84 S13       29.95F
KALAMAZOO      LGT RAIN  72  68  87 S5        29.98F
MARSHALL       CLOUDY    72  65  78 SE6       29.98F
MUSKEGON       CLOUDY    76  68  76 S12       29.91F
$$
MIZ016>042-300600-
NORTHERN LOWER MICHIGAN

CITY           SKY/WX    TMP DP  RH WIND       PRES   REMARKS
ALPENA         CLOUDY    68  59  73 S8        29.93F
BEAVER ISLAND  MOCLDY    69  67  93 S8        29.86F
BELLAIRE       CLOUDY    70  65  84 S6        29.88F
CADILLAC       CLOUDY    70  67  90 S12       29.93F
CHARLEVOIX     MOCLDY    72  67  85 S9G20     29.89F
FRANKFORT      CLOUDY    75  68  78 S12G18    29.85F
GAYLORD        LGT RAIN  67  63  87 S14       29.94S
GRAYLING       CLOUDY    69  65  88 S5        29.95F
HARBOR SPRINGS CLOUDY    72  65  80 CALM      29.88S
HOUGHTON LAKE  CLOUDY    68  63  84 S10       29.95F
MANISTEE       MOCLDY    73  66  78 SE8       29.87F
OSCODA         CLOUDY    67  58  73 SW8       29.96F
PELLSTON       CLOUDY    67  65  93 CALM      29.88F
TRAVERSE CITY  CLOUDY    73  67  81 VRB3      29.86F
$$
MIZ007>008-015-300600-
EASTERN UPPER MICHIGAN

CITY           SKY/WX    TMP DP  RH WIND       PRES   REMARKS
KINROSS        CLOUDY    64  64 100 S6        29.87F
MACKINAC ISLAN CLOUDY    68  66  96 S10       29.87F
NEWBERRY       CLOUDY    66  65  96 SW7G18    29.85S
S. S. MARIE    LGT RAIN  64  62  93 SE6       29.87F
$$
MIZ004>006-011>014-085-300600-
CENTRAL UPPER MICHIGAN

CITY           SKY/WX    TMP DP  RH WIND       PRES   REMARKS
MANISTIQUE     LGT RAIN  67  67  99 CALM      29.84F
ESCANABA       CLOUDY    66  63  88 S6        29.82F
MENOMINEE      CLOUDY    72  66  83 SE6       29.81F
SAWYER-GWINN   CLOUDY    65  64  95 SE8       29.80F
$$
MIZ001>003-009>011-084-300600-
WESTERN UPPER MICHIGAN

CITY           SKY/WX    TMP DP  RH WIND       PRES   REMARKS
IRON MOUNTAIN  CLOUDY    65  63  93 CALM      29.82R
HOUGHTON       CLOUDY    63  62  97 W3        29.77S
COPPER HARBOR    N/A     66  63  90 CALM      29.75F
$$

ABBREVIATIONS USED IN REMARKS
   TC - TEMPERATURE IN CELSIUS
  WCI - WIND CHILL INDEX
   HX - HEAT INDEX
  VSB - VISIBILITY




USA.gov is the U.S. government's official web portal to all federal, state and local government web resources and services.